Lid_Strength_Index
2 3 3 2 2 1 2 2 2 1 1 1 1 1 2 2 3 3 2 2 2 2
1 3 2 1 1 1 1 1 2 1 1 0 1 1 1 2 2 3 3 1 1 2
1 2 2 1 1 1 1 2 2 1 0 1 0 0 1 2 2 2 3 2 1 2
1 3 3 3 2 2 2 2 1 1 1 1 1 1 1 1 2 2 2 1 2 2
1 1 2 2 1 1 1 1 1 1 1 1 1 1 1 1 1 2 2 2 2 2
2 3 2 2 1 1 2 2 2 2 1 1 1 1 1 1 1 1 1 2 2 2
3 2 2 1 1 2 3 2 2 1 1 1 1 1 1 1 1 2 1 1 1 2
5 3 1 1 1 2 1 2 2 1 1 1 1 1 1 1 1 2 2 2 2 2
2 2 2 2 2 2 2 2 2 2 2 2 1 4 6 2 1 2 2 2 2 2
4 3 2 1 2 2 2 2 2 3 2 3 3 6 6 5 2 2 2 2 2 2
3 2 2 2 2 2 2 2 2 2 3 3 3 7 7 6 2 3 2 2 2 3
3 3 2 2 3 3 3 2 2 2 2 4 4 8 9 6 2 2 2 3 3 3
3 4 4 3 3 2 3 3 2 2 2 3 3 10 10 6 2 3 3 4 3 4
4 5 4 5 3 3 3 2 2 2 2 1 4 8 10 8 2 3 4 4 4 8